| time (UTC) | temp C | wind direction | speed KPH | gust KPH | rain 1hr cm | rain 24hr cm | rain mn cm | humidity % | barometer mb |
| 20260507182138 | 15 | 331 | 4.8 | 4.8 | 0.00 | 0.00 | 0.00 | 65 | 1013.0 |
| 20260507180023 | 15 | 322 | 4.8 | 4.8 | 0.00 | 0.00 | 0.00 | 64 | 1013.0 |
| 20260507175508 | 15 | 310 | 4.8 | 4.8 | 0.00 | 0.00 | 0.00 | 65 | 1013.0 |
| 20260507174442 | 15 | 307 | 4.8 | 4.8 | 0.00 | 0.00 | 0.00 | 64 | 1013.0 |
| 20260507173939 | 15 | 258 | 4.8 | 4.8 | 0.00 | 0.00 | 0.00 | 63 | 1013.0 |
| 20260507173231 | 16 | 342 | 8.0 | 8.0 | 0.00 | 0.00 | 0.00 | 64 | 1013.0 |
| 20260507172740 | 16 | 271 | 6.4 | 6.4 | 0.00 | 0.00 | 0.00 | 63 | 1013.0 |
| 20260507172229 | 16 | 294 | 11.3 | 11.3 | 0.00 | 0.00 | 0.00 | 62 | 1013.0 |
| 20260507171601 | 16 | 24 | 8.0 | 8.0 | 0.00 | 0.00 | 0.00 | 62 | 1013.0 |
| 20260507171100 | 16 | 327 | 6.4 | 6.4 | 0.00 | 0.00 | 0.00 | 62 | 1013.0 |
| 20260507170603 | 16 | 306 | 6.4 | 6.4 | 0.00 | 0.00 | 0.00 | 62 | 1013.0 |
| 20260507170023 | 16 | 136 | 4.8 | 4.8 | 0.00 | 0.00 | 0.00 | 62 | 1013.0 |
| 20260507165532 | 16 | 283 | 11.3 | 12.9 | 0.00 | 0.00 | 0.00 | 61 | 1013.0 |
| 20260507165029 | 16 | 312 | 4.8 | 4.8 | 0.00 | 0.00 | 0.00 | 61 | 1013.0 |
| 20260507164456 | 16 | 343 | 6.4 | 6.4 | 0.00 | 0.00 | 0.00 | 61 | 1013.0 |
| 20260507164003 | 16 | 300 | 6.4 | 6.4 | 0.00 | 0.00 | 0.00 | 62 | 1013.0 |
| 20260507163431 | 16 | 276 | 4.8 | 4.8 | 0.00 | 0.00 | 0.00 | 61 | 1013.0 |
| 20260507162928 | 16 | 294 | 6.4 | 6.4 | 0.00 | 0.00 | 0.00 | 63 | 1013.0 |
| 20260507162428 | 16 | 48 | 8.0 | 8.0 | 0.00 | 0.00 | 0.00 | 63 | 1013.0 |
| 20260507161931 | 16 | 288 | 4.8 | 4.8 | 0.00 | 0.00 | 0.00 | 63 | 1013.0 |
| 20260507161202 | 16 | 333 | 6.4 | 6.4 | 0.00 | 0.00 | 0.00 | 62 | 1013.0 |
| 20260507160700 | 16 | 274 | 8.0 | 8.0 | 0.00 | 0.00 | 0.00 | 63 | 1013.0 |
| 20260507160118 | 15 | 348 | 4.8 | 4.8 | 0.00 | 0.00 | 0.00 | 62 | 1013.0 |
| 20260507155555 | 15 | 282 | 11.3 | 11.3 | 0.00 | 0.00 | 0.00 | 62 | 1013.0 |
| 20260507155053 | 15 | 28 | 6.4 | 6.4 | 0.00 | 0.00 | 0.00 | 62 | 1013.0 |
| 20260507154526 | 16 | 312 | 4.8 | 4.8 | 0.00 | 0.00 | 0.00 | 63 | 1013.0 |
| 20260507154025 | 16 | 99 | 6.4 | 6.4 | 0.00 | 0.00 | 0.00 | 63 | 1013.0 |
| 20260507153517 | 16 | 222 | 6.4 | 6.4 | 0.00 | 0.00 | 0.00 | 63 | 1013.0 |
| 20260507153015 | 16 | 326 | 4.8 | 4.8 | 0.00 | 0.00 | 0.00 | 65 | 1013.0 |
| 20260507152434 | 16 | 168 | 11.3 | 12.9 | 0.00 | 0.00 | 0.00 | 66 | 1013.0 |
| 20260507151931 | 15 | 350 | 8.0 | 8.0 | 0.00 | 0.00 | 0.00 | 65 | 1013.0 |
| 20260507151431 | 15 | 330 | 6.4 | 6.4 | 0.00 | 0.00 | 0.00 | 66 | 1013.0 |
| 20260507150937 | 15 | 349 | 4.8 | 4.8 | 0.00 | 0.00 | 0.00 | 68 | 1013.0 |
| 20260507150035 | 16 | 12 | 6.4 | 6.4 | 0.00 | 0.00 | 0.00 | 61 | 1014.0 |
| 20260507145544 | 16 | 68 | 4.8 | 4.8 | 0.00 | 0.00 | 0.00 | 61 | 1014.0 |
| 20260507145039 | 16 | 292 | 4.8 | 4.8 | 0.00 | 0.00 | 0.00 | 60 | 1014.0 |
| 20260507144534 | 16 | 246 | 4.8 | 4.8 | 0.00 | 0.00 | 0.00 | 59 | 1014.0 |
| 20260507144032 | 16 | 36 | 4.8 | 4.8 | 0.00 | 0.00 | 0.00 | 59 | 1014.0 |
| 20260507143529 | 16 | 348 | 6.4 | 6.4 | 0.00 | 0.00 | 0.00 | 59 | 1014.0 |
| 20260507143028 | 16 | 314 | 4.8 | 4.8 | 0.00 | 0.00 | 0.00 | 58 | 1014.0 |
| 20260507142525 | 17 | 50 | 9.7 | 11.3 | 0.00 | 0.00 | 0.00 | 57 | 1014.0 |
| 20260507142035 | 16 | 217 | 6.4 | 6.4 | 0.00 | 0.00 | 0.00 | 57 | 1014.0 |
| 20260507141542 | 17 | 152 | 6.4 | 6.4 | 0.00 | 0.00 | 0.00 | 56 | 1014.0 |
| 20260507141028 | 17 | 210 | 4.8 | 4.8 | 0.00 | 0.00 | 0.00 | 56 | 1014.0 |
| 20260507140536 | 17 | 283 | 9.7 | 9.7 | 0.00 | 0.00 | 0.00 | 57 | 1014.0 |
| 20260507140038 | 18 | 308 | 4.8 | 4.8 | 0.00 | 0.00 | 0.00 | 54 | 1014.0 |
| 20260507135535 | 17 | 258 | 12.9 | 12.9 | 0.00 | 0.00 | 0.00 | 54 | 1014.0 |
| 20260507135037 | 16 | 258 | 12.9 | 14.5 | 0.00 | 0.00 | 0.00 | 56 | 1014.0 |
| 20260507134547 | 16 | 308 | 4.8 | 4.8 | 0.00 | 0.00 | 0.00 | 59 | 1014.0 |
| 20260507134047 | 16 | 252 | 8.0 | 8.0 | 0.00 | 0.00 | 0.00 | 61 | 1014.0 |
| 20260507133509 | 16 | 315 | 8.0 | 8.0 | 0.00 | 0.00 | 0.00 | 61 | 1014.0 |
| 20260507132932 | 15 | 348 | 4.8 | 4.8 | 0.00 | 0.00 | 0.00 | 60 | 1014.0 |
| 20260507132439 | 16 | 327 | 6.4 | 6.4 | 0.00 | 0.00 | 0.00 | 59 | 1014.0 |
| 20260507131945 | 16 | 156 | 4.8 | 4.8 | 0.00 | 0.00 | 0.00 | 58 | 1014.0 |
| 20260507131454 | 16 | 299 | 6.4 | 6.4 | 0.00 | 0.00 | 0.00 | 59 | 1014.0 |
| 20260507130950 | 16 | 276 | 6.4 | 6.4 | 0.00 | 0.00 | 0.00 | 60 | 1014.0 |
| 20260507130412 | 16 | 314 | 9.7 | 9.7 | 0.00 | 0.00 | 0.00 | 60 | 1014.0 |
| 20260507125915 | 16 | 252 | 8.0 | 8.0 | 0.00 | 0.00 | 0.00 | 60 | 1014.0 |
| 20260507125423 | 16 | 301 | 16.1 | 16.1 | 0.00 | 0.00 | 0.00 | 58 | 1014.0 |
| 20260507124932 | 17 | 318 | 4.8 | 4.8 | 0.00 | 0.00 | 0.00 | 56 | 1014.0 |
| 20260507124418 | 17 | 282 | 6.4 | 6.4 | 0.00 | 0.00 | 0.00 | 55 | 1014.0 |
| 20260507123923 | 16 | 354 | 11.3 | 11.3 | 0.00 | 0.00 | 0.00 | 59 | 1014.0 |
| 20260507123352 | 16 | 304 | 6.4 | 6.4 | 0.00 | 0.00 | 0.00 | 59 | 1014.0 |
| 20260507122844 | 16 | 258 | 4.8 | 4.8 | 0.00 | 0.00 | 0.00 | 62 | 1014.0 |
| 20260507122312 | 16 | 354 | 14.5 | 16.1 | 0.00 | 0.00 | 0.00 | 61 | 1015.0 |
| 20260507121820 | 16 | 320 | 8.0 | 8.0 | 0.00 | 0.00 | 0.00 | 61 | 1015.0 |
| 20260507121317 | 16 | 231 | 6.4 | 6.4 | 0.00 | 0.00 | 0.00 | 61 | 1015.0 |
| 20260507120817 | 16 | 270 | 8.0 | 8.0 | 0.00 | 0.00 | 0.00 | 60 | 1015.0 |
| 20260507120323 | 16 | 312 | 4.8 | 4.8 | 0.00 | 0.00 | 0.00 | 61 | 1015.0 |
| 20260507115555 | 16 | 306 | 6.4 | 6.4 | 0.00 | 0.00 | 0.00 | 60 | 1015.0 |
| 20260507114938 | 16 | 292 | 4.8 | 4.8 | 0.00 | 0.00 | 0.00 | 61 | 1015.0 |
| 20260507114435 | 16 | 289 | 4.8 | 4.8 | 0.00 | 0.00 | 0.00 | 62 | 1015.0 |
| 20260507113915 | 16 | 342 | 6.4 | 6.4 | 0.00 | 0.00 | 0.00 | 60 | 1015.0 |
| 20260507113414 | 16 | 299 | 14.5 | 14.5 | 0.00 | 0.00 | 0.00 | 62 | 1015.0 |
| 20260507112915 | 16 | 294 | 9.7 | 11.3 | 0.00 | 0.00 | 0.00 | 60 | 1015.0 |
| 20260507112415 | 16 | 288 | 6.4 | 6.4 | 0.00 | 0.00 | 0.00 | 62 | 1015.0 |
| 20260507111912 | 16 | 300 | 12.9 | 12.9 | 0.00 | 0.00 | 0.00 | 61 | 1015.0 |
| 20260507111411 | 17 | 323 | 4.8 | 4.8 | 0.00 | 0.00 | 0.00 | 59 | 1015.0 |
| 20260507110912 | 16 | 339 | 11.3 | 11.3 | 0.00 | 0.00 | 0.00 | 60 | 1015.0 |
| 20260507110410 | 15 | 84 | 4.8 | 4.8 | 0.00 | 0.00 | 0.00 | 61 | 1015.0 |
| 20260507105910 | 15 | 288 | 6.4 | 6.4 | 0.00 | 0.00 | 0.00 | 64 | 1015.0 |
| 20260507105410 | 16 | 314 | 9.7 | 11.3 | 0.00 | 0.00 | 0.00 | 63 | 1015.0 |
| 20260507104914 | 16 | 296 | 11.3 | 12.9 | 0.00 | 0.00 | 0.00 | 61 | 1015.0 |
| 20260507104423 | 16 | 258 | 4.8 | 4.8 | 0.00 | 0.00 | 0.00 | 62 | 1015.0 |
| 20260507103932 | 16 | 295 | 4.8 | 4.8 | 0.00 | 0.00 | 0.00 | 61 | 1015.0 |
| 20260507103401 | 16 | 270 | 6.4 | 6.4 | 0.00 | 0.00 | 0.00 | 64 | 1015.0 |
| 20260507102830 | 16 | 252 | 4.8 | 4.8 | 0.00 | 0.00 | 0.00 | 63 | 1015.0 |
| 20260507102340 | 15 | 311 | 9.7 | 11.3 | 0.00 | 0.00 | 0.00 | 64 | 1015.0 |
| 20260507101847 | 15 | 306 | 6.4 | 6.4 | 0.00 | 0.00 | 0.00 | 62 | 1015.0 |
| 20260507101352 | 15 | 270 | 4.8 | 4.8 | 0.00 | 0.00 | 0.00 | 66 | 1015.0 |
| 20260507100815 | 15 | 271 | 11.3 | 12.9 | 0.00 | 0.00 | 0.00 | 65 | 1015.0 |
| 20260507100319 | 15 | 246 | 6.4 | 6.4 | 0.00 | 0.00 | 0.00 | 65 | 1015.0 |
| 20260507095818 | 15 | 354 | 6.4 | 6.4 | 0.00 | 0.00 | 0.00 | 66 | 1015.0 |
| 20260507095318 | 15 | 270 | 12.9 | 12.9 | 0.00 | 0.00 | 0.00 | 66 | 1015.0 |
| 20260507094817 | 15 | 331 | 4.8 | 4.8 | 0.00 | 0.00 | 0.00 | 66 | 1015.0 |
| 20260507094315 | 14 | 325 | 8.0 | 8.0 | 0.00 | 0.00 | 0.00 | 66 | 1015.0 |
| 20260507093814 | 13 | 354 | 11.3 | 11.3 | 0.00 | 0.00 | 0.00 | 68 | 1015.0 |
| 20260507093317 | 13 | 240 | 6.4 | 6.4 | 0.00 | 0.00 | 0.00 | 70 | 1015.0 |
| 20260507092727 | 13 | 258 | 12.9 | 12.9 | 0.00 | 0.00 | 0.00 | 70 | 1015.0 |
| 20260507092201 | 13 | 319 | 8.0 | 8.0 | 0.00 | 0.00 | 0.00 | 69 | 1015.0 |
| 20260507091703 | 13 | 17 | 6.4 | 6.4 | 0.00 | 0.00 | 0.00 | 67 | 1015.0 |
| 20260507091209 | 13 | 24 | 14.5 | 14.5 | 0.00 | 0.00 | 0.00 | 70 | 1015.0 |
| 20260507090714 | 12 | 348 | 9.7 | 9.7 | 0.00 | 0.00 | 0.00 | 72 | 1015.0 |
| 20260507090218 | 12 | 296 | 6.4 | 6.4 | 0.00 | 0.00 | 0.00 | 72 | 1015.0 |
| 20260507085717 | 12 | 295 | 6.4 | 6.4 | 0.00 | 0.00 | 0.00 | 71 | 1015.0 |
| 20260507085040 | 12 | 339 | 6.4 | 6.4 | 0.00 | 0.00 | 0.00 | 73 | 1015.0 |
| 20260507084410 | 11 | 300 | 4.8 | 4.8 | 0.00 | 0.00 | 0.00 | 74 | 1015.0 |
| 20260507083841 | 11 | 60 | 4.8 | 4.8 | 0.00 | 0.00 | 0.00 | 75 | 1015.0 |
| 20260507083349 | 11 | 315 | 4.8 | 4.8 | 0.00 | 0.00 | 0.00 | 75 | 1015.0 |
| 20260507082821 | 11 | 66 | 6.4 | 6.4 | 0.00 | 0.00 | 0.00 | 76 | 1015.0 |
| 20260507082321 | 11 | 286 | 8.0 | 8.0 | 0.00 | 0.00 | 0.00 | 76 | 1015.0 |
| 20260507081805 | 11 | 354 | 14.5 | 14.5 | 0.00 | 0.00 | 0.00 | 76 | 1015.0 |
| 20260507081307 | 11 | 192 | 8.0 | 8.0 | 0.00 | 0.00 | 0.00 | 77 | 1015.0 |
| 20260507080806 | 11 | 336 | 4.8 | 4.8 | 0.00 | 0.00 | 0.00 | 77 | 1015.0 |
| 20260507080258 | 11 | 317 | 11.3 | 11.3 | 0.00 | 0.00 | 0.00 | 77 | 1015.0 |
| 20260507075758 | 10 | 305 | 4.8 | 4.8 | 0.00 | 0.00 | 0.00 | 77 | 1015.0 |
| 20260507075257 | 10 | 298 | 4.8 | 4.8 | 0.00 | 0.00 | 0.00 | 78 | 1015.0 |
| 20260507074758 | 10 | 318 | 4.8 | 4.8 | 0.00 | 0.00 | 0.00 | 78 | 1015.0 |
| 20260507074257 | 10 | 283 | 8.0 | 8.0 | 0.00 | 0.00 | 0.00 | 78 | 1015.0 |
| 20260507073804 | 10 | 300 | 4.8 | 4.8 | 0.00 | 0.00 | 0.00 | 78 | 1015.0 |
| 20260507073302 | 10 | 293 | 6.4 | 6.4 | 0.00 | 0.00 | 0.00 | 78 | 1015.0 |
| 20260507072810 | 10 | 312 | 6.4 | 6.4 | 0.00 | 0.00 | 0.00 | 79 | 1015.0 |
| 20260507072239 | 10 | 280 | 4.8 | 4.8 | 0.00 | 0.00 | 0.00 | 78 | 1015.0 |
| 20260507071745 | 10 | 291 | 6.4 | 6.4 | 0.00 | 0.00 | 0.00 | 79 | 1015.0 |
| 20260507071242 | 10 | 348 | 4.8 | 4.8 | 0.00 | 0.00 | 0.00 | 79 | 1015.0 |
| 20260507070645 | 10 | 269 | 6.4 | 6.4 | 0.00 | 0.00 | 0.00 | 79 | 1015.0 |
| 20260507070150 | 10 | 330 | 4.8 | 4.8 | 0.00 | 0.00 | 0.00 | 79 | 1015.0 |
| 20260507065639 | 10 | 289 | 6.4 | 6.4 | 0.00 | 0.00 | 0.00 | 79 | 1015.0 |
| 20260507065118 | 10 | 300 | 9.7 | 9.7 | 0.00 | 0.00 | 0.00 | 79 | 1015.0 |
| 20260507064617 | 10 | 305 | 6.4 | 6.4 | 0.00 | 0.00 | 0.00 | 79 | 1015.0 |
| 20260507064102 | 10 | 271 | 16.1 | 17.7 | 0.00 | 0.00 | 0.00 | 79 | 1015.0 |
| 20260507063536 | 10 | 301 | 6.4 | 6.4 | 0.00 | 0.00 | 0.00 | 79 | 1015.0 |
| 20260507063034 | 9 | 240 | 14.5 | 14.5 | 0.00 | 0.00 | 0.00 | 79 | 1015.0 |
| 20260507062531 | 10 | 205 | 9.7 | 11.3 | 0.00 | 0.00 | 0.00 | 79 | 1015.0 |
| 20260507062034 | 9 | 300 | 4.8 | 4.8 | 0.00 | 0.00 | 0.00 | 79 | 1015.0 |
| 20260507061428 | 9 | 291 | 4.8 | 4.8 | 0.00 | 0.00 | 0.00 | 79 | 1015.0 |
| 20260507060919 | 9 | 324 | 8.0 | 8.0 | 0.00 | 0.00 | 0.00 | 79 | 1015.0 |
| 20260507060358 | 9 | 264 | 9.7 | 9.7 | 0.00 | 0.00 | 0.00 | 79 | 1015.0 |
| 20260507055855 | 9 | 336 | 6.4 | 6.4 | 0.00 | 0.00 | 0.00 | 79 | 1015.0 |
| 20260507055328 | 9 | 286 | 8.0 | 8.0 | 0.00 | 0.00 | 0.00 | 79 | 1015.0 |
| 20260507054814 | 9 | 264 | 9.7 | 9.7 | 0.00 | 0.00 | 0.00 | 79 | 1015.0 |
| 20260507054311 | 9 | 359 | 6.4 | 6.4 | 0.00 | 0.00 | 0.00 | 79 | 1015.0 |
| 20260507053752 | 9 | 338 | 4.8 | 4.8 | 0.00 | 0.00 | 0.00 | 79 | 1015.0 |
| 20260507053211 | 9 | 258 | 8.0 | 8.0 | 0.00 | 0.00 | 0.00 | 79 | 1015.0 |
| 20260507052719 | 9 | 318 | 6.4 | 6.4 | 0.00 | 0.00 | 0.00 | 79 | 1015.0 |
| 20260507052215 | 9 | 318 | 14.5 | 16.1 | 0.00 | 0.00 | 0.00 | 79 | 1015.0 |
| 20260507051702 | 8 | 252 | 8.0 | 8.0 | 0.00 | 0.00 | 0.00 | 79 | 1014.0 |
| 20260507051200 | 8 | 294 | 4.8 | 4.8 | 0.00 | 0.00 | 0.00 | 79 | 1014.0 |
| 20260507050700 | 8 | 240 | 6.4 | 6.4 | 0.00 | 0.00 | 0.00 | 79 | 1014.0 |
| 20260507050203 | 8 | 244 | 8.0 | 8.0 | 0.00 | 0.00 | 0.00 | 79 | 1014.0 |
| 20260507045706 | 8 | 286 | 4.8 | 4.8 | 0.00 | 0.00 | 0.00 | 79 | 1014.0 |
| 20260507045152 | 8 | 12 | 6.4 | 6.4 | 0.00 | 0.00 | 0.00 | 79 | 1014.0 |
| 20260507044655 | 8 | 349 | 4.8 | 4.8 | 0.00 | 0.00 | 0.00 | 79 | 1014.0 |
| 20260507044204 | 8 | 235 | 8.0 | 8.0 | 0.00 | 0.00 | 0.00 | 80 | 1014.0 |
| 20260507043710 | 8 | 288 | 4.8 | 4.8 | 0.00 | 0.00 | 0.00 | 80 | 1014.0 |
| 20260507043210 | 8 | 306 | 4.8 | 4.8 | 0.00 | 0.00 | 0.00 | 79 | 1014.0 |
| 20260507042639 | 8 | 336 | 6.4 | 6.4 | 0.00 | 0.00 | 0.00 | 79 | 1014.0 |
| 20260507042135 | 8 | 306 | 6.4 | 6.4 | 0.00 | 0.00 | 0.00 | 79 | 1014.0 |
| 20260507041633 | 8 | 300 | 4.8 | 4.8 | 0.00 | 0.00 | 0.00 | 79 | 1014.0 |
| 20260507041137 | 8 | 258 | 6.4 | 6.4 | 0.00 | 0.00 | 0.00 | 79 | 1014.0 |
| 20260507040015 | 9 | 204 | 6.4 | 6.4 | 0.00 | 0.00 | 0.00 | 79 | 1014.0 |
| 20260507035432 | 9 | 264 | 4.8 | 4.8 | 0.00 | 0.00 | 0.00 | 78 | 1014.0 |
| 20260507034751 | 9 | 307 | 6.4 | 6.4 | 0.00 | 0.00 | 0.00 | 79 | 1014.0 |
| 20260507034224 | 9 | 292 | 6.4 | 6.4 | 0.00 | 0.00 | 0.00 | 79 | 1014.0 |
| 20260507033728 | 9 | 293 | 4.8 | 4.8 | 0.00 | 0.00 | 0.00 | 78 | 1014.0 |
| 20260507033159 | 9 | 333 | 6.4 | 6.4 | 0.00 | 0.00 | 0.00 | 78 | 1014.0 |
| 20260507032658 | 9 | 298 | 6.4 | 6.4 | 0.00 | 0.00 | 0.00 | 78 | 1014.0 |
| 20260507032156 | 9 | 294 | 6.4 | 6.4 | 0.00 | 0.00 | 0.00 | 79 | 1014.0 |
| 20260507031623 | 9 | 240 | 11.3 | 12.9 | 0.00 | 0.00 | 0.00 | 79 | 1014.0 |
| 20260507031122 | 9 | 331 | 6.4 | 6.4 | 0.00 | 0.00 | 0.00 | 78 | 1014.0 |
| 20260507030628 | 9 | 281 | 11.3 | 11.3 | 0.00 | 0.00 | 0.00 | 78 | 1014.0 |
| 20260507030124 | 9 | 312 | 4.8 | 4.8 | 0.00 | 0.00 | 0.00 | 78 | 1014.0 |
| 20260507025601 | 9 | 300 | 6.4 | 6.4 | 0.00 | 0.00 | 0.00 | 77 | 1014.0 |
| 20260507025105 | 9 | 266 | 4.8 | 4.8 | 0.00 | 0.00 | 0.00 | 76 | 1014.0 |
| 20260507024543 | 9 | 306 | 11.3 | 11.3 | 0.00 | 0.00 | 0.00 | 75 | 1014.0 |
| 20260507024051 | 9 | 310 | 11.3 | 11.3 | 0.00 | 0.00 | 0.00 | 76 | 1014.0 |
| 20260507023553 | 9 | 301 | 4.8 | 4.8 | 0.00 | 0.00 | 0.00 | 76 | 1014.0 |
| 20260507023056 | 9 | 342 | 4.8 | 4.8 | 0.00 | 0.00 | 0.00 | 77 | 1014.0 |
| 20260507022515 | 9 | 251 | 8.0 | 8.0 | 0.00 | 0.00 | 0.00 | 77 | 1014.0 |
| 20260507022016 | 9 | 333 | 4.8 | 4.8 | 0.00 | 0.00 | 0.00 | 78 | 1014.0 |
| 20260507021431 | 9 | 286 | 6.4 | 6.4 | 0.00 | 0.00 | 0.00 | 78 | 1014.0 |
| 20260507020853 | 9 | 318 | 8.0 | 8.0 | 0.00 | 0.00 | 0.00 | 78 | 1014.0 |
| 20260507020305 | 9 | 327 | 4.8 | 4.8 | 0.00 | 0.00 | 0.00 | 78 | 1014.0 |
| 20260507015556 | 9 | 6 | 4.8 | 4.8 | 0.00 | 0.00 | 0.00 | 77 | 1014.0 |
| 20260507015039 | 10 | 312 | 6.4 | 6.4 | 0.00 | 0.00 | 0.00 | 78 | 1014.0 |
| 20260507014542 | 9 | 344 | 4.8 | 4.8 | 0.00 | 0.00 | 0.00 | 78 | 1014.0 |
| 20260507013831 | 9 | 319 | 4.8 | 4.8 | 0.00 | 0.00 | 0.00 | 81 | 1014.0 |
| 20260507005815 | 10 | 278 | 4.8 | 4.8 | 0.00 | 0.00 | 0.00 | 81 | 1014.0 |
| 20260507004404 | 10 | 294 | 4.8 | 4.8 | 0.00 | 0.00 | 0.00 | 82 | 1014.0 |
| 20260507003716 | 10 | 264 | 8.0 | 8.0 | 0.00 | 0.00 | 0.00 | 83 | 1014.0 |
| 20260507003047 | 10 | 354 | 8.0 | 8.0 | 0.00 | 0.00 | 0.00 | 84 | 1014.0 |
| 20260507002424 | 10 | 336 | 4.8 | 4.8 | 0.00 | 0.00 | 0.00 | 85 | 1014.0 |
| 20260507001840 | 10 | 276 | 6.4 | 6.4 | 0.00 | 0.00 | 0.00 | 86 | 1014.0 |
| 20260507000808 | 10 | 337 | 4.8 | 4.8 | 0.00 | 0.00 | 0.00 | 87 | 1014.0 |
| 20260506235948 | 10 | 344 | 4.8 | 4.8 | 0.00 | 0.00 | 0.00 | 89 | 1014.0 |
| 20260506195058 | 11 | 197 | 4.8 | 4.8 | 0.00 | 0.00 | 0.03 | 88 | 1013.0 |